Papa, Hungary

4:29 AM CEST on July 30, 2016 (GMT +0200)
Papa

Weather History for LHPA - November, 2012

Change the Weather History Date:

Tuesday, November 6, 2012

  Actual Average Record
Temperature  
Mean Temperature 43 °F -  
Max Temperature 51 °F - - ()
Min Temperature 35 °F - - ()
Degree Days  
Heating Degree Days 22    
Moisture  
Dew Point 39 °F    
Average Humidity 88    
Maximum Humidity 100    
Minimum Humidity 71    
Precipitation  
Precipitation 0.00 in - - ()
Sea Level Pressure  
Sea Level Pressure 29.97 in    
Wind  
Wind Speed 4 mph ()    
Max Wind Speed 9 mph    
Max Gust Speed 20 mph    
Visibility 5.1 miles    
Events Rain    
T = Trace of Precipitation, MM = Missing Value Source: Averaged Metar Reports

Daily Weather History Graph

Daily Weather History Graph

Search for Another Location

Airport or City:

Trip Planner

Search our weather history database for the weather conditions in past years. The results will help you decide how hot, cold, wet, or windy it might be!

Date:

Astronomy

Nov. 06, 2012 Rise Set
Actual Time 6:41 AM CET 4:25 PM CET
Civil Twilight 6:08 AM CET 4:57 PM CET
Nautical Twilight 5:32 AM CET 5:34 PM CET
Astronomical Twilight 4:56 AM CET 6:10 PM CET
Moon 10:49 PM CET (11/6) 12:21 PM CET (11/6)
Length of Visible Light 10h 49m
Length of Day
9h 44m
Waning Gibbous, 56% of the Moon is Illuminated
Nov 6
Waning Gibbous
Nov 7
Last Quarter
Nov 13
New
Nov 20
First Quarter
Nov 28
Full

Hourly Weather History & Observations

Time (CET) Temp. Windchill Dew Point Humidity Pressure Visibility Wind Dir Wind Speed Gust Speed Precip Events Conditions
12:15 AM 39.2 °F 36.0 °F 39.2 °F 100% 29.80 in - South 4.5 mph - N/A   Clear
12:45 AM 39.2 °F 34.4 °F 39.2 °F 100% 29.80 in - South 6.7 mph - N/A   Clear
1:15 AM 39.2 °F 36.0 °F 39.2 °F 100% 29.83 in - South 4.5 mph - N/A   Clear
1:45 AM 39.2 °F 36.0 °F 39.2 °F 100% 29.83 in - South 4.5 mph - N/A   Clear
2:15 AM 39.2 °F 36.0 °F 39.2 °F 100% 29.83 in - South 4.5 mph - N/A   Clear
2:45 AM 39.2 °F 36.0 °F 39.2 °F 100% 29.86 in - South 4.5 mph - N/A   Clear
3:15 AM 37.4 °F - 37.4 °F 100% 29.86 in 5.0 mi Calm Calm - N/A   Partly Cloudy
3:45 AM 35.6 °F - 35.6 °F 100% 29.86 in 3.7 mi Calm Calm - N/A   Scattered Clouds
4:15 AM 35.6 °F 31.8 °F 35.6 °F 100% 29.86 in 3.7 mi SSE 4.5 mph - N/A   Unknown
4:45 AM 37.4 °F 33.9 °F 37.4 °F 100% 29.89 in 5.0 mi SE 4.5 mph - N/A   Unknown
5:15 AM 37.4 °F 33.9 °F 37.4 °F 100% 29.89 in - SSW 4.5 mph - N/A   Clear
5:45 AM - - - N/A% - 4.3 mi SSW 6.7 mph - N/A Rain Rain Showers
6:15 AM 39.2 °F - 37.4 °F 93% 29.89 in - SSE 2.2 mph - N/A   Clear
6:45 AM 37.4 °F - 37.4 °F 100% 29.92 in - SSE 2.2 mph - N/A   Clear
7:15 AM 37.4 °F - 37.4 °F 100% 29.92 in - SE 2.2 mph - N/A   Clear
7:45 AM 39.2 °F - 39.2 °F 100% 29.92 in - SSE 2.2 mph - N/A   Clear
8:15 AM 41.0 °F 38.1 °F 41.0 °F 100% 29.95 in - SSW 4.5 mph - N/A   Clear
8:45 AM - - - N/A% - 3.1 mi SSW 6.7 mph - N/A Rain Rain Showers
9:15 AM 44.6 °F 39.8 °F 42.8 °F 93% 29.95 in - SSW 8.9 mph - N/A   Clear
9:45 AM 46.4 °F 42.0 °F 42.8 °F 87% 29.95 in - SSW 8.9 mph - N/A   Clear
10:15 AM 48.2 °F - 42.8 °F 82% 29.95 in - SW 6.7 mph - N/A   Clear
10:45 AM 50.0 °F - 44.6 °F 82% 29.95 in - SW 6.7 mph - N/A   Clear
11:15 AM 51.8 °F - 44.6 °F 76% 29.95 in 6.2 mi WSW 2.2 mph - N/A   Mostly Cloudy
11:45 AM - - - N/A% - 3.1 mi WSW 6.7 mph - N/A Rain Rain Showers
12:15 PM 51.8 °F - 42.8 °F 71% 29.95 in - Calm Calm - N/A   Clear
12:45 PM 51.8 °F - 42.8 °F 71% 29.98 in 6.2 mi WSW 2.2 mph - N/A   Mostly Cloudy
1:15 PM 51.8 °F - 44.6 °F 76% 29.98 in 6.2 mi West 4.5 mph - N/A   Mostly Cloudy
1:45 PM 51.8 °F - 44.6 °F 76% 29.98 in 6.2 mi West 4.5 mph - N/A   Mostly Cloudy
2:15 PM 51.8 °F - 46.4 °F 82% 29.98 in 6.2 mi NNW 6.7 mph - N/A   Mostly Cloudy
2:45 PM - - - N/A% - 6.2 mi WNW 6.7 mph - N/A   Mostly Cloudy
3:15 PM 48.2 °F - 41.0 °F 76% 30.01 in 6.2 mi NNW 8.9 mph 20.1 mph N/A   Mostly Cloudy
3:45 PM 46.4 °F 42.0 °F 42.8 °F 87% 30.01 in 6.2 mi NNW 8.9 mph - N/A   Mostly Cloudy
4:15 PM 46.4 °F 42.0 °F 41.0 °F 81% 30.01 in 6.2 mi North 8.9 mph - N/A   Mostly Cloudy
4:45 PM 46.4 °F 42.0 °F 41.0 °F 81% 30.04 in 6.2 mi North 8.9 mph - N/A   Mostly Cloudy
5:15 PM 44.6 °F 39.8 °F 39.2 °F 81% 30.04 in 6.2 mi North 8.9 mph - N/A   Mostly Cloudy
5:45 PM - - - N/A% - 6.2 mi NNW 8.9 mph - N/A   Mostly Cloudy
6:15 PM 42.8 °F 40.2 °F 39.2 °F 87% 30.09 in - North 4.5 mph - N/A   Clear
6:45 PM 41.0 °F 38.1 °F 37.4 °F 87% 30.09 in - North 4.5 mph - N/A   Clear
7:15 PM 42.8 °F - 37.4 °F 81% 30.09 in - Calm Calm - N/A   Clear
7:45 PM 42.8 °F 40.2 °F 35.6 °F 76% 30.09 in - NNW 4.5 mph - N/A   Clear
8:15 PM 41.0 °F 36.5 °F 33.8 °F 76% 30.12 in - NNW 6.7 mph - N/A   Clear
8:45 PM - - - N/A% - - NNW 8.9 mph - N/A   Clear
9:15 PM 39.2 °F - 32.0 °F 75% 30.12 in - WNW 2.2 mph - N/A   Clear
9:45 PM 37.4 °F - 32.0 °F 81% 30.15 in - NW 2.2 mph - N/A   Clear
10:15 PM 37.4 °F - 32.0 °F 81% 30.15 in - Calm Calm - N/A   Clear
10:45 PM 35.6 °F - 32.0 °F 87% 30.15 in - West 2.2 mph - N/A   Clear
11:15 PM 35.6 °F - 32.0 °F 87% 30.15 in - NW 2.2 mph - N/A   Clear
11:45 PM - - - N/A% - 0.4 mi North - - N/A   Unknown